Simultaneous Nadir Overpasses (SNOs) Predictions

Prediction of SNOs between AQUA and GOES-15 Satellite Orbit:

Table of predicted SNOs for the next 14.0 days since TLE Epoch: 2/28/2025
Index Date Time (AQUA) AQUA Lat,Lon GOES-15 Lat,Lon Distance(km) Time Diff (sec)
1 03/02/2025 10:26:42 -0.08, 61.41 -0.07, 61.39 2.95 80
2 03/04/2025 22:26:33 0.03, 61.50 0.08, 61.29 24.20 80
3 03/07/2025 10:26:30 -0.06, 61.58 -0.08, 61.38 22.51 80
4 03/09/2025 22:26:17 0.03, 61.69 0.09, 61.29 44.80 80
5 03/12/2025 10:26:10 -0.01, 61.78 -0.10, 61.39 45.02 80
6 03/12/2025 22:45:30 1.03, 57.11 0.09, 61.30 477.35 80
